Weather History for Sisseton, SD

Change the Weather History Date:

Wednesday, May 7, 2014

  Actual Average Record
Temperature  
Mean Temperature 55 °F 54 °F  
Max Temperature 63 °F 67 °F 109 °F (1934)
Min Temperature 46 °F 42 °F 26 °F (1976)
Degree Days  
Heating Degree Days 10 11  
Month to date heating degree days 116 85  
Since 1 July heating degree days 8860 8044  
Cooling Degree Days 0 0  
Month to date cooling degree days 0 0  
Year to date cooling degree days 0 1  
Growing Degree Days 6 (Base 50)    
Moisture  
Dew Point 43 °F    
Average Humidity 72    
Maximum Humidity 93    
Minimum Humidity 51    
Precipitation  
Precipitation 0.01 in 0.08 in 1.23 in (1993)
Month to date precipitation 0.01 0.58  
Year to date precipitation 4.65 4.84  
Sea Level Pressure  
Sea Level Pressure 29.71 in    
Wind  
Wind Speed 11 mph (East)    
Max Wind Speed 23 mph    
Max Gust Speed 28 mph    
T = Trace of Precipitation, MM = Missing Value Source: NWS Daily Summary

Daily Weather History Graph

Daily Weather History Graph

Search for Another Location

Airport:

Trip Planner

Search our weather history database for the weather conditions in past years. The results will help you decide how hot, cold, wet, or windy it might be!

Date:

Astronomy

May. 07, 2014 Rise Set
Actual Time 6:06 AM CDT 8:42 PM CDT
Civil Twilight 5:33 AM CDT 9:16 PM CDT
Nautical Twilight 4:51 AM CDT 9:59 PM CDT
Astronomical Twilight 4:02 AM CDT 10:48 PM CDT
Moon 1:28 PM CDT (5/7) 2:28 AM CDT (5/7)
Length of Visible Light 15h 43m
Length of Day
14h 35m
First Quarter, 55% of the Moon is Illuminated
May 7
First Quarter
May 14
Full
May 21
Last Quarter
May 28
New
Jun 5
First Quarter

Hourly Weather History & Observations

Time (CDT) Temp. Windchill Dew Point Humidity Pressure Visibility Wind Dir Wind Speed Gust Speed Precip Events Conditions
1:56 AM 54.0 °F - 42.1 °F 64% 29.70 in - ESE 9.2 mph - N/A   Unknown
2:56 AM 53.1 °F - 42.1 °F 66% 29.71 in - ESE 8.1 mph - N/A   Unknown
3:56 AM 52.0 °F - 41.0 °F 66% 29.71 in - SE 6.9 mph - N/A   Unknown
4:56 AM 51.1 °F - 41.0 °F 68% 29.71 in - SE 8.1 mph - N/A   Unknown
5:56 AM 50.0 °F - 41.0 °F 71% 29.73 in - SE 6.9 mph - N/A   Unknown
6:56 AM 48.9 °F - 42.1 °F 77% 29.73 in - ESE 8.1 mph - N/A   Unknown
7:56 AM 50.0 °F - 41.0 °F 71% 29.74 in - SE 8.1 mph - N/A   Unknown
8:56 AM 52.0 °F - 41.0 °F 66% 29.73 in - SE 10.4 mph - N/A   Unknown
9:56 AM 55.0 °F - 41.0 °F 59% 29.72 in - SE 15.0 mph - N/A   Unknown
10:56 AM 57.0 °F - 41.0 °F 55% 29.72 in - SE 15.0 mph - N/A   Unknown
11:56 AM 53.1 °F - 44.1 °F 71% 29.65 in - SE 19.6 mph - N/A   Unknown
12:05 PM 54.0 °F - 45.0 °F 72% 29.64 in - SE 20.7 mph - N/A   Unknown
12:56 PM 57.9 °F - 44.1 °F 60% 29.68 in - ESE 10.4 mph - 0.01 in   Unknown
1:56 PM 60.1 °F - 43.0 °F 53% 29.67 in - East 10.4 mph - N/A   Unknown
2:56 PM 63.0 °F - 44.1 °F 50% 29.65 in - East 10.4 mph - N/A   Unknown
3:56 PM 61.0 °F - 44.1 °F 54% 29.70 in - NE 8.1 mph - N/A   Unknown
4:56 PM 60.1 °F - 44.1 °F 55% 29.70 in - NE 6.9 mph - N/A   Unknown
5:56 PM 59.0 °F - 46.0 °F 62% 29.71 in - NE 13.8 mph - N/A   Unknown
6:56 PM 57.9 °F - 45.0 °F 62% 29.72 in - NE 12.7 mph - N/A   Unknown
7:56 PM 55.9 °F - 46.0 °F 69% 29.73 in - NNE 8.1 mph - N/A   Unknown
8:56 PM 53.1 °F - 46.9 °F 80% 29.73 in - North 15.0 mph - N/A   Unknown
9:56 PM 50.0 °F - 46.0 °F 86% 29.74 in - North 11.5 mph - N/A   Unknown
10:56 PM 48.0 °F - 46.0 °F 93% 29.74 in - North 10.4 mph - N/A   Unknown
11:56 PM 46.0 °F 41.0 °F 45.0 °F 96% 29.75 in - North 10.4 mph - N/A   Unknown